Airfield :
LOGIN :

Register | Disclaimer

   EN    FR    IT 

 










Legend :    VFR   Marginal VFR   IFR   Intensive IFR   Very Intensive IFR
Visi :
Ceiling :
>= 8 km
>= 3000ft
5 to 8 km
1000 to 3000 ft
1500m to 5 km
500 to 1000 ft
800 to 1500m
200 to 500 ft
< 800m
< 200 ft
Symbols :   Thunderstorms  Fog  Heavy snow  Heavy precipitations  Wind > 20 kt
SIGMETs :     Misc.  Thunderstorms  Icing  Turbulence  Mountain Waves  Volcanic Ashes







- Airport Elevation : 1470 ft


LSMD - Dubendorf Military

CURRENT METAR :
  • 120720Z 00000KT 0350 R11/0600U R29/0600V0900D FZFG VV001 M04/M04 Q1022 RMK RED

EXPIRED METARs :
  • 120650Z 00000KT 0350 R11/0400N R29/0375N FZFG FEW001 M05/M05 Q1022 RMK RED
  • 120620Z 00000KT 0400 R11/0400N R29/0900V1800D FZFG BKN001 M04/M04 Q1022 RMK RED
  • 120550Z 00000KT 0500 R11/0500N R29/P2000U FZFG VV001 M04/M04 Q1022 RMK RED
  • 120520Z AUTO 00000KT 0450NDV R11/0450V0550N R29/1100VP2000U FZFG VV001 M03/M03 Q1022 RMK
  • 120450Z AUTO 00000KT 0500NDV R11/0500N R29/0550V0800U FZFG VV001 M03/M03 Q1022 RMK

Expired Forecast.
No reported NOTAMs for that airfield.



MET'MAP, your aeronautical weather chart ! - Copyright ORBIFLY December 2007 - Disclaimer

ORBIFLY MET'MAP TEAM :

Programming & Development : Alexandra Zaïnal
Concept & Development : Baudouin d'Aumeries
Co-Development & Prog : Marc-Olivier Méhu
Technical & hardware support : Manuel Goepfert

Contact : metmap@orbifly.com




SOURCES & CREDITS :

   NOAA